Weather History for Curtin, WE

Change the Weather History Date:

Sunday, September 2, 2012

  Actual Average Record
Temperature  
Mean Temperature 78 °F -  
Max Temperature 98 °F - - ()
Min Temperature 59 °F - - ()
Cooling Degree Days 14    
Growing Degree Days 28 (Base 50)    
Moisture  
Dew Point 52 °F    
Average Humidity 52    
Maximum Humidity 94    
Minimum Humidity 6    
Precipitation  
Precipitation 0.00 in - - ()
Sea Level Pressure  
Sea Level Pressure 29.90 in    
Wind  
Wind Speed 5 mph ()    
Max Wind Speed 10 mph    
Max Gust Speed -    
T = Trace of Precipitation, MM = Missing Value Source: Averaged Metar Reports

Daily Weather History Graph

Daily Weather History Graph

Search for Another Location

Airport:

Trip Planner

Search our weather history database for the weather conditions in past years. The results will help you decide how hot, cold, wet, or windy it might be!

Date:

Astronomy

Sep. 02, 2012 Rise Set
Actual Time 5:50 AM AWST 5:37 PM AWST
Civil Twilight 5:29 AM AWST 5:59 PM AWST
Nautical Twilight 5:03 AM AWST 6:25 PM AWST
Astronomical Twilight 4:38 AM AWST 6:50 PM AWST
Moon 7:06 PM AWST (9/2) 6:33 AM AWST (9/2)
Length of Visible Light 12h 30m
Length of Day
11h 47m
Full, 97% of the Moon is Illuminated
Sep 2
Full
Sep 8
Last Quarter
Sep 16
New
Sep 23
First Quarter
Sep 30
Full

Hourly Weather History & Observations

Time (AWST) Temp. Heat Index Dew Point Humidity Pressure Visibility Wind Dir Wind Speed Gust Speed Precip Events Conditions
12:00 AM 69 °F - 56 °F 55% 29.90 in - WSW 5.8 mph - -  
12:00 AM 69.8 °F - 57.2 °F 64% 29.89 in - WSW 5.8 mph - N/A   Unknown
1:00 AM 62.6 °F - 53.6 °F 72% 29.89 in - NW 3.5 mph - N/A   Unknown
2:00 AM 59.0 °F - 53.6 °F 82% 29.89 in - NNE 5.8 mph - N/A   Unknown
3:00 AM 60 °F - 57 °F 87% 29.89 in - NNE 5.8 mph - -  
3:00 AM 60.8 °F - 57.2 °F 88% 29.89 in - NNE 5.8 mph - N/A   Unknown
4:00 AM 59.0 °F - 57.2 °F 94% 29.89 in - NNW 4.6 mph - N/A   Unknown
5:00 AM 60.8 °F - 57.2 °F 88% 29.92 in - North 4.6 mph - N/A   Unknown
6:00 AM 61 °F - 59 °F 91% 29.93 in - NNE 4.6 mph - -  
6:00 AM 60.8 °F - 59.0 °F 94% 29.92 in - NNE 4.6 mph - N/A   Unknown
7:00 AM 66.2 °F - 64.4 °F 94% 29.95 in - North 4.6 mph - N/A   Unknown
8:00 AM 73.4 °F - 66.2 °F 78% 29.98 in - NNW 5.8 mph - N/A   Unknown
9:00 AM 83 °F - 56 °F 30% 29.96 in - NW 5.8 mph - -  
9:00 AM 82.4 °F 82.0 °F 57.2 °F 42% 29.95 in - NW 5.8 mph - N/A   Unknown
10:00 AM 89.6 °F 88.1 °F 57.2 °F 33% 29.95 in - North 5.8 mph - N/A   Unknown
11:00 AM 93.2 °F - 44.6 °F 19% 29.92 in - North 6.9 mph - N/A   Unknown
12:00 PM 95.0 °F - 51.8 °F 23% 29.89 in - WNW 8.1 mph - N/A   Unknown
1:00 PM 96.8 °F - 37.4 °F 13% 29.86 in - NNW 6.9 mph - N/A   Unknown
2:00 PM 96.8 °F - 33.8 °F 11% 29.86 in - WNW 10.4 mph - N/A   Unknown
3:00 PM 96 °F - 37 °F 6% 29.84 in - NNW 9.2 mph - -  
3:00 PM 96.8 °F - 37.4 °F 13% 29.83 in - NNW 9.2 mph - N/A   Unknown
4:00 PM 93.2 °F - 39.2 °F 15% 29.83 in - NNW 8.1 mph - N/A   Unknown
5:00 PM 89.6 °F - 44.6 °F 21% 29.86 in - NNW 6.9 mph - N/A   Unknown
6:00 PM 82 °F - 50 °F 23% 29.87 in - NNW 8.1 mph - -  
6:00 PM 82.4 °F - 50.0 °F 32% 29.86 in - NNW 8.1 mph - N/A   Unknown
7:00 PM 77.0 °F - 53.6 °F 44% 29.89 in - NNW 4.6 mph - N/A   Unknown
8:00 PM 73.4 °F - 55.4 °F 53% 29.92 in - North 5.8 mph - N/A   Unknown
9:00 PM 69 °F - 54 °F 48% 29.92 in - NNW 4.6 mph - -  
9:00 PM 69.8 °F - 53.6 °F 56% 29.92 in - NNW 4.6 mph - N/A   Unknown
10:00 PM 68.0 °F - 55.4 °F 64% 29.92 in - West 4.6 mph - N/A   Unknown
11:00 PM 66.2 °F - 59.0 °F 78% 29.92 in - WNW 3.5 mph - N/A   Unknown